Time,TemperatureF,DewpointF,PressureIn,WindDirection,WindDirectionDegrees,WindSpeedMPH,WindSpeedGustMPH,Humidity,HourlyPrecipIn,Conditions,Clouds,dailyrainin,SoftwareType,DateUTC
2013-05-13 00:01:00,40.9,24.6,30.14,NNW,330,0.0,0.0,52,0.00,,---,0.00,VWS V14.01,2013-05-13 05:01:00,
2013-05-13 00:06:00,40.8,25.5,30.15,NNW,329,0.0,0.0,54,0.00,,---,0.00,VWS V14.01,2013-05-13 05:06:00,
2013-05-13 00:11:00,40.7,24.5,30.15,NNW,329,0.0,0.0,52,0.00,,---,0.00,VWS V14.01,2013-05-13 05:11:00,
2013-05-13 00:16:00,40.9,24.2,30.15,NNW,329,0.0,0.0,51,0.00,,---,0.00,VWS V14.01,2013-05-13 05:16:00,
2013-05-13 00:21:00,41.1,23.9,30.15,NNW,330,0.0,0.0,50,0.00,,---,0.00,VWS V14.01,2013-05-13 05:21:00,
2013-05-13 00:26:00,41.2,24.5,30.15,NNW,330,0.0,0.0,51,0.00,,---,0.00,VWS V14.01,2013-05-13 05:26:00,
2013-05-13 00:31:00,40.8,24.1,30.15,NNW,330,0.0,0.0,51,0.00,,---,0.00,VWS V14.01,2013-05-13 05:31:00,
2013-05-13 00:36:00,40.7,25.4,30.15,NNW,330,0.0,0.0,54,0.00,,---,0.00,VWS V14.01,2013-05-13 05:36:00,
2013-05-13 00:41:00,40.4,25.5,30.15,NNW,330,0.0,0.0,55,0.00,,---,0.00,VWS V14.01,2013-05-13 05:41:00,
2013-05-13 00:46:00,40.4,26.0,30.15,NNW,330,0.0,0.0,56,0.00,,---,0.00,VWS V14.01,2013-05-13 05:46:00,
2013-05-13 00:51:00,40.1,25.7,30.15,NNW,329,0.0,0.0,56,0.00,,---,0.00,VWS V14.01,2013-05-13 05:51:00,
2013-05-13 00:56:00,39.8,25.4,30.15,NNW,329,0.0,0.0,56,0.00,,---,0.00,VWS V14.01,2013-05-13 05:56:00,
2013-05-13 01:01:00,39.4,25.5,30.14,NNW,329,0.0,0.0,57,0.00,,---,0.00,VWS V14.01,2013-05-13 06:01:00,
2013-05-13 01:06:00,38.8,25.3,30.14,NNW,329,0.0,0.0,58,0.00,,---,0.00,VWS V14.01,2013-05-13 06:06:00,
2013-05-13 01:11:00,38.3,24.4,30.14,NNW,330,0.0,0.0,57,0.00,,---,0.00,VWS V14.01,2013-05-13 06:11:00,
2013-05-13 01:16:00,37.9,24.9,30.14,NNW,330,0.0,0.0,59,0.00,,---,0.00,VWS V14.01,2013-05-13 06:16:00,
2013-05-13 01:21:00,37.7,25.5,30.14,NNW,330,0.0,0.0,61,0.00,,---,0.00,VWS V14.01,2013-05-13 06:21:00,
2013-05-13 01:26:00,37.5,25.3,30.15,NNW,329,0.0,0.0,61,0.00,,---,0.00,VWS V14.01,2013-05-13 06:26:00,
2013-05-13 01:31:00,37.5,25.7,30.14,NNW,330,0.0,0.0,62,0.00,,---,0.00,VWS V14.01,2013-05-13 06:31:00,
2013-05-13 01:36:00,37.2,25.0,30.14,NNW,330,0.0,0.0,61,0.00,,---,0.00,VWS V14.01,2013-05-13 06:36:00,
2013-05-13 01:41:00,36.9,25.1,30.14,NNW,330,0.0,0.0,62,0.00,,---,0.00,VWS V14.01,2013-05-13 06:41:00,
2013-05-13 01:46:00,36.9,25.5,30.14,NNW,329,0.0,0.0,63,0.00,,---,0.00,VWS V14.01,2013-05-13 06:46:00,
2013-05-13 01:51:00,36.6,25.2,30.14,NNW,329,0.0,0.0,63,0.00,,---,0.00,VWS V14.01,2013-05-13 06:51:00,
2013-05-13 01:56:00,36.3,24.9,30.14,NNW,330,0.0,0.0,63,0.00,,---,0.00,VWS V14.01,2013-05-13 06:56:00,
2013-05-13 02:01:00,36.1,25.1,30.14,NNW,330,0.0,0.0,64,0.00,,---,0.00,VWS V14.01,2013-05-13 07:01:00,
2013-05-13 02:06:00,36.0,25.4,30.14,NNW,330,0.0,0.0,65,0.00,,---,0.00,VWS V14.01,2013-05-13 07:06:00,
2013-05-13 02:11:00,35.9,25.3,30.14,NNW,329,0.0,0.0,65,0.00,,---,0.00,VWS V14.01,2013-05-13 07:11:00,
2013-05-13 02:16:00,36.0,25.8,30.14,NNW,329,0.0,0.0,66,0.00,,---,0.00,VWS V14.01,2013-05-13 07:16:00,
2013-05-13 02:21:00,36.1,26.6,30.14,NNW,329,0.0,0.0,68,0.00,,---,0.00,VWS V14.01,2013-05-13 07:21:00,
2013-05-13 02:26:00,36.1,26.2,30.14,NNW,329,0.0,0.0,67,0.00,,---,0.00,VWS V14.01,2013-05-13 07:26:00,
2013-05-13 02:31:00,35.7,26.2,30.14,NNW,330,0.0,0.0,68,0.00,,---,0.00,VWS V14.01,2013-05-13 07:31:00,
2013-05-13 02:35:00,35.4,26.3,30.13,NNW,329,0.0,0.0,69,0.00,,---,0.00,VWS V14.01,2013-05-13 07:35:00,
2013-05-13 02:40:00,35.2,26.1,30.13,NNW,329,0.0,0.0,69,0.00,,---,0.00,VWS V14.01,2013-05-13 07:40:00,
2013-05-13 02:45:00,35.1,26.3,30.13,NNW,329,0.0,0.0,70,0.00,,---,0.00,VWS V14.01,2013-05-13 07:45:00,
2013-05-13 02:50:00,35.1,26.7,30.13,NNW,330,0.0,0.0,71,0.00,,---,0.00,VWS V14.01,2013-05-13 07:50:00,
2013-05-13 02:55:00,35.2,26.8,30.13,NNW,330,0.0,0.0,71,0.00,,---,0.00,VWS V14.01,2013-05-13 07:55:00,
2013-05-13 03:00:00,35.3,26.9,30.13,NNW,330,0.0,0.0,71,0.00,,---,0.00,VWS V14.01,2013-05-13 08:00:00,
2013-05-13 03:05:00,35.3,26.9,30.13,NNW,330,0.0,0.0,71,0.00,,---,0.00,VWS V14.01,2013-05-13 08:05:00,
2013-05-13 03:10:00,35.2,26.4,30.13,NNW,329,0.0,0.0,70,0.00,,---,0.00,VWS V14.01,2013-05-13 08:10:00,
2013-05-13 03:15:00,35.0,26.2,30.13,NNW,330,0.0,0.0,70,0.00,,---,0.00,VWS V14.01,2013-05-13 08:15:00,
2013-05-13 03:20:00,34.7,26.3,30.13,NNW,330,0.0,0.0,71,0.00,,---,0.00,VWS V14.01,2013-05-13 08:20:00,
2013-05-13 03:25:00,34.5,26.1,30.13,NNW,329,0.0,0.0,71,0.00,,---,0.00,VWS V14.01,2013-05-13 08:25:00,
2013-05-13 03:30:00,34.4,26.3,30.13,NNW,329,0.0,0.0,72,0.00,,---,0.00,VWS V14.01,2013-05-13 08:30:00,
2013-05-13 03:35:00,34.3,26.2,30.13,NNW,330,0.0,0.0,72,0.00,,---,0.00,VWS V14.01,2013-05-13 08:35:00,
2013-05-13 03:40:00,34.2,26.1,30.12,NNW,329,0.0,0.0,72,0.00,,---,0.00,VWS V14.01,2013-05-13 08:40:00,
2013-05-13 03:45:00,34.1,26.4,30.13,NNW,329,0.0,0.0,73,0.00,,---,0.00,VWS V14.01,2013-05-13 08:45:00,
2013-05-13 03:50:00,34.3,26.6,30.13,NNW,329,0.0,0.0,73,0.00,,---,0.00,VWS V14.01,2013-05-13 08:50:00,
2013-05-13 03:55:00,34.4,26.7,30.13,NNW,329,0.0,0.0,73,0.00,,---,0.00,VWS V14.01,2013-05-13 08:55:00,
2013-05-13 04:00:00,34.2,26.5,30.13,NNW,329,0.0,0.0,73,0.00,,---,0.00,VWS V14.01,2013-05-13 09:00:00,
2013-05-13 04:05:00,34.0,26.3,30.13,NNW,330,0.0,0.0,73,0.00,,---,0.00,VWS V14.01,2013-05-13 09:05:00,
2013-05-13 04:10:00,33.7,26.0,30.13,NNW,330,0.0,0.0,73,0.00,,---,0.00,VWS V14.01,2013-05-13 09:10:00,
2013-05-13 04:15:00,33.5,25.8,30.12,NNW,330,0.0,0.0,73,0.00,,---,0.00,VWS V14.01,2013-05-13 09:15:00,
2013-05-13 04:20:00,33.7,26.3,30.12,NNW,330,0.0,0.0,74,0.00,,---,0.00,VWS V14.01,2013-05-13 09:20:00,
2013-05-13 04:25:00,33.7,26.6,30.12,NNW,329,0.0,0.0,75,0.00,,---,0.00,VWS V14.01,2013-05-13 09:25:00,
2013-05-13 04:30:00,33.6,26.5,30.12,NNW,330,0.0,0.0,75,0.00,,---,0.00,VWS V14.01,2013-05-13 09:30:00,
2013-05-13 04:35:00,33.9,26.8,30.12,NNW,330,0.0,0.0,75,0.00,,---,0.00,VWS V14.01,2013-05-13 09:35:00,
2013-05-13 04:40:00,34.0,26.9,30.12,NNW,330,0.0,0.0,75,0.00,,---,0.00,VWS V14.01,2013-05-13 09:40:00,
2013-05-13 04:45:00,33.9,26.8,30.12,NNW,330,0.0,0.0,75,0.00,,---,0.00,VWS V14.01,2013-05-13 09:45:00,
2013-05-13 04:50:00,33.9,26.8,30.12,NNW,329,0.0,0.0,75,0.00,,---,0.00,VWS V14.01,2013-05-13 09:50:00,
2013-05-13 04:55:00,33.9,27.1,30.12,NNW,330,0.0,0.0,76,0.00,,---,0.00,VWS V14.01,2013-05-13 09:55:00,
2013-05-13 05:00:00,34.1,27.3,30.12,NNW,330,0.0,0.0,76,0.00,,---,0.00,VWS V14.01,2013-05-13 10:00:00,
2013-05-13 05:05:00,34.1,27.3,30.12,NNW,329,0.0,0.0,76,0.00,,---,0.00,VWS V14.01,2013-05-13 10:05:00,
2013-05-13 05:10:00,34.0,27.6,30.12,NNW,330,0.0,0.0,77,0.00,,---,0.00,VWS V14.01,2013-05-13 10:10:00,
2013-05-13 05:15:00,34.1,28.0,30.12,NNW,329,0.0,0.0,78,0.00,,---,0.00,VWS V14.01,2013-05-13 10:15:00,
2013-05-13 05:20:00,34.3,28.2,30.12,NNW,329,0.0,0.0,78,0.00,,---,0.00,VWS V14.01,2013-05-13 10:20:00,
2013-05-13 05:25:00,34.2,27.8,30.12,NNW,330,0.0,0.0,77,0.00,,---,0.00,VWS V14.01,2013-05-13 10:25:00,
2013-05-13 05:30:00,34.4,28.3,30.12,NNW,330,0.0,0.0,78,0.00,,---,0.00,VWS V14.01,2013-05-13 10:30:00,
2013-05-13 05:35:00,34.5,28.0,30.13,NNW,330,0.0,0.0,77,0.00,,---,0.00,VWS V14.01,2013-05-13 10:35:00,
2013-05-13 05:40:00,34.4,28.0,30.13,NNW,330,0.0,0.0,77,0.00,,---,0.00,VWS V14.01,2013-05-13 10:40:00,
2013-05-13 05:45:00,34.3,27.9,30.13,NNW,329,0.0,0.0,77,0.00,,---,0.00,VWS V14.01,2013-05-13 10:45:00,
2013-05-13 05:50:00,34.7,28.5,30.12,NNW,330,0.0,0.0,78,0.00,,---,0.00,VWS V14.01,2013-05-13 10:50:00,
2013-05-13 05:55:00,35.0,28.9,30.13,NNW,330,0.0,0.0,78,0.00,,---,0.00,VWS V14.01,2013-05-13 10:55:00,
2013-05-13 06:00:00,35.0,28.5,30.13,NNW,329,0.0,0.0,77,0.00,,---,0.00,VWS V14.01,2013-05-13 11:00:00,
2013-05-13 06:05:00,35.0,28.5,30.13,NNW,329,0.0,0.0,77,0.00,,---,0.00,VWS V14.01,2013-05-13 11:05:00,
2013-05-13 06:10:00,35.1,28.6,30.13,NNW,330,0.0,0.0,77,0.00,,---,0.00,VWS V14.01,2013-05-13 11:10:00,
2013-05-13 06:15:00,35.2,28.7,30.13,NNW,329,0.0,0.0,77,0.00,,---,0.00,VWS V14.01,2013-05-13 11:15:00,
2013-05-13 06:20:00,35.5,29.3,30.13,NNW,330,0.0,0.0,78,0.00,,---,0.00,VWS V14.01,2013-05-13 11:20:00,
2013-05-13 06:25:00,35.8,29.6,30.13,NNW,330,0.0,0.0,78,0.00,,---,0.00,VWS V14.01,2013-05-13 11:25:00,
2013-05-13 06:30:00,36.4,29.9,30.12,NNW,329,0.0,0.0,77,0.00,,---,0.00,VWS V14.01,2013-05-13 11:30:00,
2013-05-13 06:35:00,36.8,30.3,30.12,NNW,329,0.0,0.0,77,0.00,,---,0.00,VWS V14.01,2013-05-13 11:35:00,
2013-05-13 06:40:00,37.3,31.1,30.12,NNW,329,0.0,0.0,78,0.00,,---,0.00,VWS V14.01,2013-05-13 11:40:00,
2013-05-13 06:45:00,38.2,32.0,30.13,NNW,330,0.0,0.0,78,0.00,,---,0.00,VWS V14.01,2013-05-13 11:45:00,
2013-05-13 06:50:00,39.1,32.5,30.13,NNW,329,0.0,1.0,77,0.00,,---,0.00,VWS V14.01,2013-05-13 11:50:00,
2013-05-13 06:55:00,39.6,32.7,30.13,NNW,329,0.0,1.0,76,0.00,,---,0.00,VWS V14.01,2013-05-13 11:55:00,
2013-05-13 07:00:00,40.1,32.8,30.13,NNW,329,0.0,0.0,75,0.00,,---,0.00,VWS V14.01,2013-05-13 12:00:00,
2013-05-13 07:05:00,40.4,32.4,30.13,NNW,329,0.0,0.0,73,0.00,,---,0.00,VWS V14.01,2013-05-13 12:05:00,
2013-05-13 07:10:00,40.8,32.5,30.13,NNW,329,0.0,0.0,72,0.00,,---,0.00,VWS V14.01,2013-05-13 12:10:00,
2013-05-13 07:15:00,41.1,32.1,30.13,NNW,329,0.0,0.0,70,0.00,,---,0.00,VWS V14.01,2013-05-13 12:15:00,
2013-05-13 07:20:00,41.4,32.0,30.14,NNW,330,0.0,0.0,69,0.00,,---,0.00,VWS V14.01,2013-05-13 12:20:00,
2013-05-13 07:25:00,41.9,32.5,30.14,NNW,329,0.0,0.0,69,0.00,,---,0.00,VWS V14.01,2013-05-13 12:25:00,
2013-05-13 07:30:00,42.4,32.6,30.13,NNW,329,0.0,0.0,68,0.00,,---,0.00,VWS V14.01,2013-05-13 12:30:00,
2013-05-13 07:35:00,43.1,33.3,30.13,NNW,330,0.0,0.0,68,0.00,,---,0.00,VWS V14.01,2013-05-13 12:35:00,
2013-05-13 07:40:00,43.7,32.3,30.13,NNW,332,0.0,0.0,64,0.00,,---,0.00,VWS V14.01,2013-05-13 12:40:00,
2013-05-13 07:45:00,44.3,32.5,30.13,NNW,333,0.0,0.0,63,0.00,,---,0.00,VWS V14.01,2013-05-13 12:45:00,
2013-05-13 07:50:00,44.7,32.1,30.13,NNW,332,0.0,0.0,61,0.00,,---,0.00,VWS V14.01,2013-05-13 12:50:00,
2013-05-13 07:55:00,45.2,31.7,30.13,NNW,332,0.0,0.0,59,0.00,,---,0.00,VWS V14.01,2013-05-13 12:55:00,
2013-05-13 08:00:00,45.5,31.6,30.13,NNW,332,0.0,0.0,58,0.00,,---,0.00,VWS V14.01,2013-05-13 13:00:00,
2013-05-13 08:05:00,45.9,32.0,30.13,NNW,336,0.0,1.0,58,0.00,,---,0.00,VWS V14.01,2013-05-13 13:05:00,
2013-05-13 08:10:00,46.3,31.5,30.13,SE,134,0.0,3.0,56,0.00,,---,0.00,VWS V14.01,2013-05-13 13:10:00,
2013-05-13 08:15:00,47.0,31.2,30.13,ESE,110,1.0,3.0,54,0.00,,---,0.00,VWS V14.01,2013-05-13 13:15:00,
2013-05-13 08:20:00,47.4,30.2,30.13,SSW,204,1.0,3.0,51,0.00,,---,0.00,VWS V14.01,2013-05-13 13:20:00,
2013-05-13 08:25:00,48.0,29.8,30.12,SSE,159,2.0,3.0,49,0.00,,---,0.00,VWS V14.01,2013-05-13 13:25:00,
2013-05-13 08:30:00,48.4,29.6,30.12,SSE,150,1.0,3.0,48,0.00,,---,0.00,VWS V14.01,2013-05-13 13:30:00,
2013-05-13 08:35:00,48.9,30.6,30.12,East,79,0.0,3.0,49,0.00,,---,0.00,VWS V14.01,2013-05-13 13:35:00,
2013-05-13 08:40:00,49.4,30.0,30.12,SSE,165,0.0,3.0,47,0.00,,---,0.00,VWS V14.01,2013-05-13 13:40:00,
2013-05-13 08:45:00,49.7,28.7,30.12,ESE,106,1.0,2.0,44,0.00,,---,0.00,VWS V14.01,2013-05-13 13:45:00,
2013-05-13 08:50:00,49.9,30.0,30.13,SSE,167,2.0,4.0,46,0.00,,---,0.00,VWS V14.01,2013-05-13 13:50:00,
2013-05-13 08:55:00,50.4,29.3,30.12,SE,142,1.0,4.0,44,0.00,,---,0.00,VWS V14.01,2013-05-13 13:55:00,
2013-05-13 09:00:00,50.8,28.5,30.12,East,100,2.0,2.0,42,0.00,,---,0.00,VWS V14.01,2013-05-13 14:00:00,
2013-05-13 09:05:00,51.5,30.3,30.12,ESE,118,1.0,3.0,44,0.00,,---,0.00,VWS V14.01,2013-05-13 14:05:00,
2013-05-13 09:10:00,52.5,30.7,30.12,ESE,113,2.0,3.0,43,0.00,,---,0.00,VWS V14.01,2013-05-13 14:10:00,
2013-05-13 09:15:00,53.3,30.2,30.11,ENE,77,1.0,3.0,41,0.00,,---,0.00,VWS V14.01,2013-05-13 14:15:00,
2013-05-13 09:20:00,54.3,31.7,30.11,NE,55,3.0,3.0,42,0.00,,---,0.00,VWS V14.01,2013-05-13 14:20:00,
2013-05-13 09:25:00,54.7,29.6,30.11,SE,125,1.0,4.0,38,0.00,,---,0.00,VWS V14.01,2013-05-13 14:25:00,
2013-05-13 09:30:00,55.4,28.9,30.10,SSE,158,1.0,5.0,36,0.00,,---,0.00,VWS V14.01,2013-05-13 14:30:00,
2013-05-13 09:35:00,55.9,32.0,30.10,East,100,3.0,5.0,40,0.00,,---,0.00,VWS V14.01,2013-05-13 14:35:00,
2013-05-13 09:40:00,56.7,29.4,30.09,SE,125,0.0,5.0,35,0.00,,---,0.00,VWS V14.01,2013-05-13 14:40:00,
2013-05-13 09:45:00,57.5,31.5,30.09,South,191,2.0,5.0,37,0.00,,---,0.00,VWS V14.01,2013-05-13 14:45:00,
2013-05-13 09:50:00,57.9,29.7,30.08,SE,125,1.0,5.0,34,0.00,,---,0.00,VWS V14.01,2013-05-13 14:50:00,
2013-05-13 09:55:00,58.6,29.6,30.08,SE,145,2.0,6.0,33,0.00,,---,0.00,VWS V14.01,2013-05-13 14:55:00,
2013-05-13 10:00:00,58.5,28.8,30.08,SE,132,5.0,7.0,32,0.00,,---,0.00,VWS V14.01,2013-05-13 15:00:00,
2013-05-13 10:05:00,58.8,31.2,30.08,ENE,74,2.0,7.0,35,0.00,,---,0.00,VWS V14.01,2013-05-13 15:05:00,
2013-05-13 10:10:00,58.8,29.8,30.07,WSW,245,1.0,8.0,33,0.00,,---,0.00,VWS V14.01,2013-05-13 15:10:00,
2013-05-13 10:15:00,59.4,30.3,30.07,East,85,3.0,4.0,33,0.00,,---,0.00,VWS V14.01,2013-05-13 15:15:00,
2013-05-13 10:20:00,59.6,29.7,30.07,East,99,3.0,7.0,32,0.00,,---,0.00,VWS V14.01,2013-05-13 15:20:00,
2013-05-13 10:25:00,59.7,29.0,30.07,WSW,238,1.0,7.0,31,0.00,,---,0.00,VWS V14.01,2013-05-13 15:25:00,
2013-05-13 10:30:00,59.9,30.0,30.07,SSE,148,1.0,6.0,32,0.00,,---,0.00,VWS V14.01,2013-05-13 15:30:00,
2013-05-13 10:35:00,60.2,31.0,30.06,East,100,7.0,8.0,33,0.00,,---,0.00,VWS V14.01,2013-05-13 15:35:00,
2013-05-13 10:40:00,60.4,29.6,30.06,SSW,206,4.0,9.0,31,0.00,,---,0.00,VWS V14.01,2013-05-13 15:40:00,
2013-05-13 10:45:00,60.6,29.0,30.06,SSW,211,5.0,9.0,30,0.00,,---,0.00,VWS V14.01,2013-05-13 15:45:00,
2013-05-13 10:50:00,60.8,30.0,30.06,ESE,104,6.0,9.0,31,0.00,,---,0.00,VWS V14.01,2013-05-13 15:50:00,
2013-05-13 10:55:00,60.9,30.9,30.05,ESE,119,1.0,9.0,32,0.00,,---,0.00,VWS V14.01,2013-05-13 15:55:00,
2013-05-13 11:00:00,61.2,30.4,30.05,SE,140,3.0,5.0,31,0.00,,---,0.00,VWS V14.01,2013-05-13 16:00:00,
2013-05-13 11:05:00,61.7,30.8,30.05,ESE,123,3.0,7.0,31,0.00,,---,0.00,VWS V14.01,2013-05-13 16:05:00,
2013-05-13 11:10:00,62.0,29.4,30.05,SE,146,1.0,9.0,29,0.00,,---,0.00,VWS V14.01,2013-05-13 16:10:00,
2013-05-13 11:15:00,62.0,29.4,30.05,East,88,4.0,8.0,29,0.00,,---,0.00,VWS V14.01,2013-05-13 16:15:00,
2013-05-13 11:20:00,62.0,29.4,30.05,SE,134,4.0,9.0,29,0.00,,---,0.00,VWS V14.01,2013-05-13 16:20:00,
2013-05-13 11:25:00,62.0,28.5,30.04,SSE,161,5.0,9.0,28,0.00,,---,0.00,VWS V14.01,2013-05-13 16:25:00,
2013-05-13 11:30:00,61.5,28.1,30.04,ENE,72,3.0,8.0,28,0.00,,---,0.00,VWS V14.01,2013-05-13 16:30:00,
2013-05-13 11:35:00,61.2,28.7,30.04,SSE,155,9.0,10.0,29,0.00,,---,0.00,VWS V14.01,2013-05-13 16:35:00,
2013-05-13 11:40:00,61.1,29.5,30.04,SW,222,2.0,10.0,30,0.00,,---,0.00,VWS V14.01,2013-05-13 16:40:00,
2013-05-13 11:45:00,60.9,30.1,30.03,East,89,3.0,4.0,31,0.00,,---,0.00,VWS V14.01,2013-05-13 16:45:00,
2013-05-13 11:50:00,60.7,30.7,30.04,SSW,211,4.0,7.0,32,0.00,,---,0.00,VWS V14.01,2013-05-13 16:50:00,
2013-05-13 11:55:00,60.5,31.3,30.04,WSW,249,2.0,7.0,33,0.00,,---,0.00,VWS V14.01,2013-05-13 16:55:00,
2013-05-13 12:00:00,60.4,33.3,30.04,WSW,251,2.0,5.0,36,0.00,,---,0.00,VWS V14.01,2013-05-13 17:00:00,
2013-05-13 12:05:00,60.1,33.1,30.03,SSW,201,3.0,5.0,36,0.00,,---,0.00,VWS V14.01,2013-05-13 17:05:00,
2013-05-13 12:10:00,59.9,33.6,30.03,SSE,155,2.0,5.0,37,0.00,,---,0.00,VWS V14.01,2013-05-13 17:10:00,
2013-05-13 12:15:00,60.0,33.0,30.02,ENE,69,5.0,7.0,36,0.00,,---,0.00,VWS V14.01,2013-05-13 17:15:00,
2013-05-13 12:20:00,60.2,31.8,30.01,South,171,2.0,7.0,34,0.00,,---,0.00,VWS V14.01,2013-05-13 17:20:00,
2013-05-13 12:25:00,60.5,34.1,30.01,ENE,75,4.0,7.0,37,0.00,,---,0.00,VWS V14.01,2013-05-13 17:25:00,
2013-05-13 12:30:00,60.7,32.9,30.00,SE,133,4.0,7.0,35,0.00,,---,0.00,VWS V14.01,2013-05-13 17:30:00,
2013-05-13 12:35:00,60.7,32.2,30.00,East,93,6.0,9.0,34,0.00,,---,0.00,VWS V14.01,2013-05-13 17:35:00,
2013-05-13 12:40:00,60.7,32.2,30.00,East,89,1.0,9.0,34,0.00,,---,0.00,VWS V14.01,2013-05-13 17:40:00,
2013-05-13 12:45:00,60.8,33.0,30.00,SSE,152,1.0,7.0,35,0.00,,---,0.00,VWS V14.01,2013-05-13 17:45:00,
2013-05-13 12:50:00,60.8,33.7,29.99,SE,137,5.0,7.0,36,0.00,,---,0.00,VWS V14.01,2013-05-13 17:50:00,
2013-05-13 12:55:00,60.4,34.7,30.00,SSE,152,4.0,7.0,38,0.00,,---,0.00,VWS V14.01,2013-05-13 17:55:00,
2013-05-13 13:00:00,59.5,36.4,30.00,ESE,120,1.0,6.0,42,0.00,,---,0.00,VWS V14.01,2013-05-13 18:00:00,
2013-05-13 13:05:00,58.7,36.3,29.99,ESE,110,2.0,6.0,43,0.00,,---,0.00,VWS V14.01,2013-05-13 18:05:00,
2013-05-13 13:10:00,58.2,37.0,30.00,ESE,104,1.0,6.0,45,0.00,,---,0.00,VWS V14.01,2013-05-13 18:10:00,
2013-05-13 13:15:00,58.2,37.5,29.99,South,179,1.0,3.0,46,0.00,,---,0.00,VWS V14.01,2013-05-13 18:15:00,
2013-05-13 13:20:00,58.2,38.6,29.98,ESE,118,1.0,5.0,48,0.00,,---,0.00,VWS V14.01,2013-05-13 18:20:00,
2013-05-13 13:25:00,58.6,39.0,29.98,SSW,204,2.0,5.0,48,0.00,,---,0.00,VWS V14.01,2013-05-13 18:25:00,
2013-05-13 13:30:00,59.0,36.0,29.98,East,88,7.0,8.0,42,0.00,,---,0.00,VWS V14.01,2013-05-13 18:30:00,
2013-05-13 13:35:00,59.4,36.3,29.97,ESE,110,1.0,8.0,42,0.00,,---,0.00,VWS V14.01,2013-05-13 18:35:00,
2013-05-13 13:40:00,59.9,36.8,29.97,SE,127,1.0,8.0,42,0.00,,---,0.00,VWS V14.01,2013-05-13 18:40:00,
2013-05-13 13:45:00,60.3,36.5,29.97,SW,228,1.0,5.0,41,0.00,,---,0.00,VWS V14.01,2013-05-13 18:45:00,
2013-05-13 13:50:00,60.7,38.7,29.95,West,261,2.0,10.0,44,0.00,,---,0.00,VWS V14.01,2013-05-13 18:50:00,
2013-05-13 13:55:00,61.6,37.1,29.95,NE,50,2.0,10.0,40,0.00,,---,0.00,VWS V14.01,2013-05-13 18:55:00,
2013-05-13 14:00:00,61.9,36.7,29.95,SE,140,1.0,14.0,39,0.00,,---,0.00,VWS V14.01,2013-05-13 19:00:00,
2013-05-13 14:05:00,62.1,38.1,29.94,NE,54,3.0,14.0,41,0.00,,---,0.00,VWS V14.01,2013-05-13 19:05:00,
2013-05-13 14:10:00,62.6,38.0,29.93,SE,133,5.0,14.0,40,0.00,,---,0.00,VWS V14.01,2013-05-13 19:10:00,
2013-05-13 14:15:00,63.2,39.1,29.93,SE,139,2.0,7.0,41,0.00,,---,0.00,VWS V14.01,2013-05-13 19:15:00,
2013-05-13 14:20:00,63.6,38.2,29.93,SSE,161,3.0,10.0,39,0.00,,---,0.00,VWS V14.01,2013-05-13 19:20:00,
2013-05-13 14:25:00,63.8,38.4,29.93,SSW,201,4.0,10.0,39,0.00,,---,0.00,VWS V14.01,2013-05-13 19:25:00,
2013-05-13 14:30:00,63.8,37.7,29.93,ESE,109,1.0,9.0,38,0.00,,---,0.00,VWS V14.01,2013-05-13 19:30:00,
2013-05-13 14:35:00,64.2,38.8,29.93,ESE,103,3.0,12.0,39,0.00,,---,0.00,VWS V14.01,2013-05-13 19:35:00,
2013-05-13 14:40:00,64.3,38.8,29.93,ENE,64,4.0,12.0,39,0.00,,---,0.00,VWS V14.01,2013-05-13 19:40:00,
2013-05-13 14:45:00,64.9,39.4,29.93,SE,137,2.0,5.0,39,0.00,,---,0.00,VWS V14.01,2013-05-13 19:45:00,
2013-05-13 14:50:00,65.4,39.8,29.92,ESE,113,5.0,8.0,39,0.00,,---,0.00,VWS V14.01,2013-05-13 19:50:00,
2013-05-13 14:55:00,65.4,38.5,29.91,ESE,102,5.0,14.0,37,0.00,,---,0.00,VWS V14.01,2013-05-13 19:55:00,
2013-05-13 15:00:00,65.5,38.6,29.91,South,180,7.0,9.0,37,0.00,,---,0.00,VWS V14.01,2013-05-13 20:00:00,
2013-05-13 15:05:00,66.2,40.5,29.92,SE,138,2.0,9.0,39,0.00,,---,0.00,VWS V14.01,2013-05-13 20:05:00,
2013-05-13 15:10:00,66.9,40.5,29.91,East,95,3.0,13.0,38,0.00,,---,0.00,VWS V14.01,2013-05-13 20:10:00,
2013-05-13 15:15:00,67.3,40.2,29.91,SE,136,3.0,6.0,37,0.00,,---,0.00,VWS V14.01,2013-05-13 20:15:00,
2013-05-13 15:20:00,67.6,39.0,29.91,ESE,119,5.0,16.0,35,0.00,,---,0.00,VWS V14.01,2013-05-13 20:20:00,
2013-05-13 15:25:00,67.4,39.5,29.90,SSE,168,4.0,16.0,36,0.00,,---,0.00,VWS V14.01,2013-05-13 20:25:00,
2013-05-13 15:30:00,67.3,39.5,29.90,ESE,117,4.0,11.0,36,0.00,,---,0.00,VWS V14.01,2013-05-13 20:30:00,
2013-05-13 15:35:00,67.2,40.1,29.90,SSE,166,5.0,11.0,37,0.00,,---,0.00,VWS V14.01,2013-05-13 20:35:00,
2013-05-13 15:40:00,67.4,40.2,29.89,ESE,110,4.0,16.0,37,0.00,,---,0.00,VWS V14.01,2013-05-13 20:40:00,
2013-05-13 15:45:00,67.8,40.6,29.89,SE,125,5.0,12.0,37,0.00,,---,0.00,VWS V14.01,2013-05-13 20:45:00,
2013-05-13 15:50:00,68.4,41.1,29.88,SSE,166,7.0,13.0,37,0.00,,---,0.00,VWS V14.01,2013-05-13 20:50:00,
2013-05-13 15:55:00,68.6,41.3,29.88,East,92,10.0,15.0,37,0.00,,---,0.00,VWS V14.01,2013-05-13 20:55:00,
2013-05-13 16:00:00,68.7,42.1,29.88,SSE,149,3.0,9.0,38,0.00,,---,0.00,VWS V14.01,2013-05-13 21:00:00,
2013-05-13 16:05:00,69.4,41.3,29.88,SSW,209,3.0,12.0,36,0.00,,---,0.00,VWS V14.01,2013-05-13 21:05:00,
2013-05-13 16:10:00,69.8,41.7,29.87,SSW,195,2.0,14.0,36,0.00,,---,0.00,VWS V14.01,2013-05-13 21:10:00,
2013-05-13 16:15:00,70.1,41.2,29.87,SE,136,5.0,11.0,35,0.00,,---,0.00,VWS V14.01,2013-05-13 21:15:00,
2013-05-13 16:20:00,70.1,41.2,29.87,ESE,105,4.0,11.0,35,0.00,,---,0.00,VWS V14.01,2013-05-13 21:20:00,
2013-05-13 16:25:00,69.8,40.2,29.86,East,94,5.0,11.0,34,0.00,,---,0.00,VWS V14.01,2013-05-13 21:25:00,
2013-05-13 16:30:00,69.4,41.3,29.86,East,96,4.0,11.0,36,0.00,,---,0.00,VWS V14.01,2013-05-13 21:30:00,
2013-05-13 16:35:00,69.5,40.7,29.86,East,100,6.0,11.0,35,0.00,,---,0.00,VWS V14.01,2013-05-13 21:35:00,
2013-05-13 16:40:00,69.4,41.3,29.85,SE,127,6.0,14.0,36,0.00,,---,0.00,VWS V14.01,2013-05-13 21:40:00,
2013-05-13 16:45:00,69.5,41.4,29.85,SE,130,1.0,9.0,36,0.00,,---,0.00,VWS V14.01,2013-05-13 21:45:00,
2013-05-13 16:50:00,69.9,41.0,29.85,SE,124,8.0,13.0,35,0.00,,---,0.00,VWS V14.01,2013-05-13 21:50:00,
2013-05-13 16:55:00,69.9,41.8,29.85,SSE,153,6.0,13.0,36,0.00,,---,0.00,VWS V14.01,2013-05-13 21:55:00,
2013-05-13 17:00:00,69.8,41.7,29.84,ESE,116,7.0,13.0,36,0.00,,---,0.00,VWS V14.01,2013-05-13 22:00:00,
2013-05-13 17:05:00,70.1,41.9,29.84,SE,145,4.0,13.0,36,0.00,,---,0.00,VWS V14.01,2013-05-13 22:05:00,
2013-05-13 17:10:00,70.5,42.3,29.84,SE,142,5.0,13.0,36,0.00,,---,0.00,VWS V14.01,2013-05-13 22:10:00,
2013-05-13 17:15:00,70.6,42.4,29.83,NE,41,3.0,15.0,36,0.00,,---,0.00,VWS V14.01,2013-05-13 22:15:00,
2013-05-13 17:20:00,70.7,42.5,29.83,SSE,155,4.0,21.0,36,0.00,,---,0.00,VWS V14.01,2013-05-13 22:20:00,
2013-05-13 17:25:00,70.9,42.6,29.83,East,89,7.0,21.0,36,0.00,,---,0.00,VWS V14.01,2013-05-13 22:25:00,
2013-05-13 17:30:00,70.8,42.5,29.82,SSE,152,4.0,14.0,36,0.00,,---,0.00,VWS V14.01,2013-05-13 22:30:00,
2013-05-13 17:35:00,71.0,42.7,29.82,SE,139,10.0,17.0,36,0.00,,---,0.00,VWS V14.01,2013-05-13 22:35:00,
2013-05-13 17:39:00,70.8,43.3,29.82,South,187,12.0,17.0,37,0.00,,---,0.00,VWS V14.01,2013-05-13 22:39:00,
2013-05-13 17:44:00,70.9,43.4,29.81,West,270,6.0,9.0,37,0.00,,---,0.00,VWS V14.01,2013-05-13 22:44:00,
2013-05-13 17:49:00,71.0,43.4,29.81,ESE,120,5.0,11.0,37,0.00,,---,0.00,VWS V14.01,2013-05-13 22:49:00,
2013-05-13 17:54:00,71.2,43.6,29.80,SSW,213,3.0,11.0,37,0.00,,---,0.00,VWS V14.01,2013-05-13 22:54:00,
2013-05-13 17:59:00,71.5,43.9,29.80,SE,124,7.0,9.0,37,0.00,,---,0.00,VWS V14.01,2013-05-13 22:59:00,
2013-05-13 18:04:00,71.6,44.7,29.80,ESE,107,1.0,9.0,38,0.00,,---,0.00,VWS V14.01,2013-05-13 23:04:00,
2013-05-13 18:09:00,71.6,44.0,29.80,SE,135,5.0,9.0,37,0.00,,---,0.00,VWS V14.01,2013-05-13 23:09:00,
2013-05-13 18:14:00,71.6,44.0,29.79,SE,137,2.0,8.0,37,0.00,,---,0.00,VWS V14.01,2013-05-13 23:14:00,
2013-05-13 18:19:00,71.6,44.7,29.79,SSE,160,4.0,13.0,38,0.00,,---,0.00,VWS V14.01,2013-05-13 23:19:00,
2013-05-13 18:24:00,71.8,44.8,29.78,SE,137,2.0,13.0,38,0.00,,---,0.00,VWS V14.01,2013-05-13 23:24:00,
2013-05-13 18:29:00,72.0,45.7,29.77,SSW,204,3.0,4.0,39,0.00,,---,0.00,VWS V14.01,2013-05-13 23:29:00,
2013-05-13 18:34:00,72.0,45.0,29.77,SE,145,4.0,10.0,38,0.00,,---,0.00,VWS V14.01,2013-05-13 23:34:00,
2013-05-13 18:39:00,71.9,44.9,29.77,ESE,102,8.0,10.0,38,0.00,,---,0.00,VWS V14.01,2013-05-13 23:39:00,
2013-05-13 18:44:00,71.8,44.8,29.77,SE,130,4.0,9.0,38,0.00,,---,0.00,VWS V14.01,2013-05-13 23:44:00,
2013-05-13 18:49:00,71.8,45.5,29.77,South,190,2.0,9.0,39,0.00,,---,0.00,VWS V14.01,2013-05-13 23:49:00,
2013-05-13 18:54:00,71.8,45.5,29.76,ESE,121,2.0,9.0,39,0.00,,---,0.00,VWS V14.01,2013-05-13 23:54:00,
2013-05-13 18:59:00,71.4,45.8,29.76,South,183,2.0,3.0,40,0.00,,---,0.00,VWS V14.01,2013-05-13 23:59:00,
2013-05-13 19:04:00,71.1,46.2,29.75,SSE,149,3.0,3.0,41,0.00,,---,0.00,VWS V14.01,2013-05-14 00:04:00,
2013-05-13 19:09:00,71.0,46.1,29.75,SSE,152,1.0,6.0,41,0.00,,---,0.00,VWS V14.01,2013-05-14 00:09:00,
2013-05-13 19:14:00,71.0,46.8,29.75,East,83,2.0,2.0,42,0.00,,---,0.00,VWS V14.01,2013-05-14 00:14:00,
2013-05-13 19:19:00,71.1,46.2,29.75,ENE,65,3.0,7.0,41,0.00,,---,0.00,VWS V14.01,2013-05-14 00:19:00,
2013-05-13 19:24:00,71.2,46.3,29.74,SE,129,2.0,11.0,41,0.00,,---,0.00,VWS V14.01,2013-05-14 00:24:00,
2013-05-13 19:29:00,71.3,46.4,29.74,West,276,1.0,5.0,41,0.00,,---,0.00,VWS V14.01,2013-05-14 00:29:00,
2013-05-13 19:34:00,71.1,46.9,29.74,ESE,110,0.0,5.0,42,0.00,,---,0.00,VWS V14.01,2013-05-14 00:34:00,
2013-05-13 19:39:00,71.1,46.9,29.74,ENE,61,1.0,5.0,42,0.00,,---,0.00,VWS V14.01,2013-05-14 00:39:00,
2013-05-13 19:44:00,70.8,47.2,29.73,SSE,155,0.0,3.0,43,0.00,,---,0.00,VWS V14.01,2013-05-14 00:44:00,
2013-05-13 19:49:00,70.5,47.0,29.73,ESE,110,2.0,3.0,43,0.00,,---,0.00,VWS V14.01,2013-05-14 00:49:00,
2013-05-13 19:54:00,70.4,46.9,29.73,ENE,78,3.0,6.0,43,0.00,,---,0.00,VWS V14.01,2013-05-14 00:54:00,
2013-05-13 19:59:00,70.4,47.5,29.73,East,88,1.0,4.0,44,0.00,,---,0.00,VWS V14.01,2013-05-14 00:59:00,
2013-05-13 20:04:00,70.1,47.2,29.72,SE,142,0.0,4.0,44,0.00,,---,0.00,VWS V14.01,2013-05-14 01:04:00,
2013-05-13 20:09:00,69.8,47.5,29.72,NW,312,1.0,5.0,45,0.00,,---,0.00,VWS V14.01,2013-05-14 01:09:00,
2013-05-13 20:14:00,69.5,47.2,29.72,ENE,75,0.0,2.0,45,0.00,,---,0.00,VWS V14.01,2013-05-14 01:14:00,
2013-05-13 20:19:00,69.2,47.0,29.72,ESE,104,1.0,4.0,45,0.00,,---,0.00,VWS V14.01,2013-05-14 01:19:00,
2013-05-13 20:24:00,69.0,47.4,29.71,ENE,71,0.0,4.0,46,0.00,,---,0.00,VWS V14.01,2013-05-14 01:24:00,
2013-05-13 20:29:00,68.7,47.7,29.71,North,355,0.0,2.0,47,0.00,,---,0.00,VWS V14.01,2013-05-14 01:29:00,
2013-05-13 20:34:00,68.5,47.5,29.71,SSW,208,2.0,3.0,47,0.00,,---,0.00,VWS V14.01,2013-05-14 01:34:00,
2013-05-13 20:39:00,68.1,47.7,29.71,SSE,149,1.0,3.0,48,0.00,,---,0.00,VWS V14.01,2013-05-14 01:39:00,
2013-05-13 20:44:00,68.0,48.2,29.71,East,95,0.0,3.0,49,0.00,,---,0.00,VWS V14.01,2013-05-14 01:44:00,
2013-05-13 20:49:00,67.7,47.9,29.70,ENE,74,0.0,3.0,49,0.00,,---,0.00,VWS V14.01,2013-05-14 01:49:00,
2013-05-13 20:54:00,67.5,48.2,29.70,SSW,205,1.0,4.0,50,0.00,,---,0.00,VWS V14.01,2013-05-14 01:54:00,
2013-05-13 20:59:00,67.3,48.0,29.70,East,88,2.0,3.0,50,0.00,,---,0.00,VWS V14.01,2013-05-14 01:59:00,
2013-05-13 21:04:00,67.4,48.1,29.70,ESE,115,0.0,3.0,50,0.00,,---,0.00,VWS V14.01,2013-05-14 02:04:00,
2013-05-13 21:09:00,67.2,48.0,29.70,East,100,1.0,3.0,50,0.00,,---,0.00,VWS V14.01,2013-05-14 02:09:00,
2013-05-13 21:14:00,67.1,48.4,29.70,ESE,106,0.0,3.0,51,0.00,,---,0.00,VWS V14.01,2013-05-14 02:14:00,
2013-05-13 21:19:00,66.9,48.2,29.70,ESE,110,1.0,7.0,51,0.00,,---,0.00,VWS V14.01,2013-05-14 02:19:00,
2013-05-13 21:24:00,67.0,48.3,29.69,East,88,2.0,7.0,51,0.00,,---,0.00,VWS V14.01,2013-05-14 02:24:00,
2013-05-13 21:29:00,67.1,47.9,29.69,ESE,110,2.0,6.0,50,0.00,,---,0.00,VWS V14.01,2013-05-14 02:29:00,
2013-05-13 21:34:00,67.2,48.5,29.69,SE,142,3.0,6.0,51,0.00,,---,0.00,VWS V14.01,2013-05-14 02:34:00,
2013-05-13 21:39:00,67.1,48.4,29.69,East,100,2.0,9.0,51,0.00,,---,0.00,VWS V14.01,2013-05-14 02:39:00,
2013-05-13 21:44:00,67.1,48.4,29.69,East,99,3.0,5.0,51,0.00,,---,0.00,VWS V14.01,2013-05-14 02:44:00,
2013-05-13 21:49:00,67.1,48.4,29.69,SSW,206,1.0,8.0,51,0.00,,---,0.00,VWS V14.01,2013-05-14 02:49:00,
2013-05-13 21:54:00,66.8,48.1,29.69,SW,225,3.0,8.0,51,0.00,,---,0.00,VWS V14.01,2013-05-14 02:54:00,
2013-05-13 21:59:00,66.8,48.1,29.68,SE,125,3.0,8.0,51,0.00,,---,0.00,VWS V14.01,2013-05-14 02:59:00,
2013-05-13 22:04:00,67.1,47.9,29.68,SSE,147,4.0,10.0,50,0.00,,---,0.00,VWS V14.01,2013-05-14 03:04:00,
2013-05-13 22:09:00,67.4,48.1,29.68,East,99,6.0,10.0,50,0.00,,---,0.00,VWS V14.01,2013-05-14 03:09:00,
2013-05-13 22:14:00,67.3,48.0,29.68,SE,127,2.0,5.0,50,0.00,,---,0.00,VWS V14.01,2013-05-14 03:14:00,
2013-05-13 22:19:00,67.2,48.0,29.68,South,176,1.0,5.0,50,0.00,,---,0.00,VWS V14.01,2013-05-14 03:19:00,
2013-05-13 22:24:00,67.5,48.2,29.68,SW,218,0.0,7.0,50,0.00,,---,0.00,VWS V14.01,2013-05-14 03:24:00,
2013-05-13 22:29:00,67.5,48.2,29.68,WNW,294,0.0,2.0,50,0.00,,---,0.00,VWS V14.01,2013-05-14 03:29:00,
2013-05-13 22:34:00,67.3,48.0,29.67,SSE,152,2.0,5.0,50,0.00,,---,0.00,VWS V14.01,2013-05-14 03:34:00,
2013-05-13 22:39:00,67.6,47.8,29.67,SSW,211,3.0,5.0,49,0.00,,---,0.00,VWS V14.01,2013-05-14 03:39:00,
2013-05-13 22:44:00,67.8,48.0,29.67,East,89,0.0,4.0,49,0.00,,---,0.00,VWS V14.01,2013-05-14 03:44:00,
2013-05-13 22:49:00,67.7,47.9,29.67,SSE,156,2.0,5.0,49,0.00,,---,0.00,VWS V14.01,2013-05-14 03:49:00,
2013-05-13 22:54:00,67.9,48.1,29.67,ENE,78,2.0,5.0,49,0.00,,---,0.00,VWS V14.01,2013-05-14 03:54:00,
2013-05-13 22:59:00,68.0,48.2,29.67,NNE,29,1.0,2.0,49,0.00,,---,0.00,VWS V14.01,2013-05-14 03:59:00,
2013-05-13 23:01:00,68.0,48.2,29.67,SW,218,3.0,5.0,49,0.00,,---,0.00,VWS V14.01,2013-05-14 04:01:00,
2013-05-13 23:06:00,68.0,48.2,29.67,ENE,62,2.0,5.0,49,0.00,,---,0.00,VWS V14.01,2013-05-14 04:06:00,
2013-05-13 23:11:00,67.9,48.1,29.67,SSW,201,1.0,5.0,49,0.00,,---,0.00,VWS V14.01,2013-05-14 04:11:00,
2013-05-13 23:16:00,67.7,48.4,29.67,East,79,0.0,3.0,50,0.00,,---,0.00,VWS V14.01,2013-05-14 04:16:00,
2013-05-13 23:21:00,67.7,48.4,29.67,SW,222,1.0,4.0,50,0.00,,---,0.00,VWS V14.01,2013-05-14 04:21:00,
2013-05-13 23:26:00,67.6,48.3,29.67,SW,225,2.0,4.0,50,0.00,,---,0.00,VWS V14.01,2013-05-14 04:26:00,
2013-05-13 23:31:00,67.5,48.2,29.67,WNW,296,0.0,3.0,50,0.00,,---,0.00,VWS V14.01,2013-05-14 04:31:00,
2013-05-13 23:36:00,67.3,48.0,29.67,WSW,254,1.0,4.0,50,0.00,,---,0.00,VWS V14.01,2013-05-14 04:36:00,
2013-05-13 23:41:00,67.2,48.5,29.67,WNW,296,0.0,4.0,51,0.00,,---,0.00,VWS V14.01,2013-05-14 04:41:00,
2013-05-13 23:46:00,67.3,48.6,29.67,West,277,1.0,5.0,51,0.00,,---,0.00,VWS V14.01,2013-05-14 04:46:00,
2013-05-13 23:51:00,67.5,48.2,29.66,WSW,238,1.0,6.0,50,0.00,,---,0.00,VWS V14.01,2013-05-14 04:51:00,
2013-05-13 23:56:00,67.7,48.4,29.66,SSW,192,1.0,8.0,50,0.00,,---,0.00,VWS V14.01,2013-05-14 04:56:00,